Frenchville, ME

4:47 AM EDT on July 28, 2017 (GMT -0400)
Northern Aroostook Regional

Weather History for KFVE - December, 2012

Change the Weather History Date:

Sunday, December 23, 2012

  Actual Average Record
Temperature  
Mean Temperature 16 °F 14 °F  
Max Temperature 24 °F 21 °F 48 °F (2004)
Min Temperature 8 °F 7 °F -7 °F (2008)
Degree Days  
Heating Degree Days 49    
Month to date heating degree days 972  
Since 1 July heating degree days 2989  
Cooling Degree Days 0    
Month to date cooling degree days 0  
Year to date cooling degree days 203  
Moisture  
Dew Point 10 °F    
Average Humidity 80    
Maximum Humidity 88    
Minimum Humidity 68    
Precipitation  
Precipitation 0.01 in 0.07 in 0.73 in (2004)
Month to date precipitation 1.78 2.03  
Year to date precipitation 31.94 33.09  
Sea Level Pressure  
Sea Level Pressure 29.46 in    
Wind  
Wind Speed 12 mph (West)    
Max Wind Speed 26 mph    
Max Gust Speed 36 mph    
Visibility 6 miles    
Events Snow    
T = Trace of Precipitation, MM = Missing Value Source: NWS Daily Summary

Daily Weather History Graph

Daily Weather History Graph

Search for Another Location

Airport or City:

Trip Planner

Search our weather history database for the weather conditions in past years. The results will help you decide how hot, cold, wet, or windy it might be!

Date:

Astronomy

Dec. 23, 2012 Rise Set
Actual Time 7:18 AM EST 3:46 PM EST
Civil Twilight 6:42 AM EST 4:22 PM EST
Nautical Twilight 6:03 AM EST 5:01 PM EST
Astronomical Twilight 5:26 AM EST 5:39 PM EST
Moon 12:43 PM EST (12/23) 2:48 AM EST (12/23)
Length of Visible Light 9h 39m
Length of Day
8h 28m
Waxing Gibbous, 81% of the Moon is Illuminated
Dec 23
Waxing Gibbous
Dec 28
Full
Jan 4
Last Quarter
Jan 11
New
Jan 18
First Quarter

Hourly Weather History & Observations

Time (EST) Temp. Windchill Dew Point Humidity Pressure Visibility Wind Dir Wind Speed Gust Speed Precip Events Conditions
12:53 AM 24.1 °F 13.7 °F 19.9 °F 84% 29.31 in 10.0 mi West 10.4 mph - 0.00 in   Overcast
1:53 AM 23.0 °F 10.1 °F 18.0 °F 81% 29.34 in 10.0 mi WSW 15.0 mph - N/A   Overcast
2:53 AM 21.0 °F 7.6 °F 17.1 °F 85% 29.35 in 7.0 mi West 15.0 mph - 0.00 in Snow Light Snow
3:53 AM 19.0 °F 6.8 °F 14.0 °F 81% 29.37 in 10.0 mi West 11.5 mph 20.7 mph 0.00 in   Overcast
4:15 AM 17.6 °F 5.0 °F 14.0 °F 86% 29.34 in 10.0 mi West 11.5 mph - N/A   Overcast
4:31 AM 17.6 °F 5.7 °F 12.2 °F 79% 29.35 in 10.0 mi West 10.4 mph 19.6 mph N/A   Overcast
4:53 AM 17.1 °F 3.6 °F 12.9 °F 84% 29.39 in 2.5 mi West 12.7 mph 18.4 mph 0.00 in Snow Light Snow
4:58 AM 17.6 °F 3.7 °F 12.2 °F 79% 29.36 in 1.5 mi West 13.8 mph - 0.01 in Snow Light Snow
5:08 AM 17.6 °F 5.7 °F 12.2 °F 79% 29.36 in 2.0 mi WSW 10.4 mph - 0.01 in Snow Light Snow
5:19 AM 17.6 °F 5.7 °F 12.2 °F 79% 29.37 in 1.8 mi WSW 10.4 mph - 0.01 in Snow Light Snow
5:29 AM 17.6 °F 5.0 °F 12.2 °F 79% 29.37 in 2.5 mi WSW 11.5 mph - 0.01 in Snow Light Snow
5:53 AM 16.0 °F 2.3 °F 12.9 °F 88% 29.42 in 3.0 mi West 12.7 mph - 0.01 in Snow Light Snow
6:05 AM 15.8 °F 2.1 °F 12.2 °F 86% 29.39 in 2.5 mi West 12.7 mph - 0.00 in Snow Light Snow
6:35 AM 15.8 °F 0.3 °F 12.2 °F 86% 29.40 in 4.0 mi West 16.1 mph - 0.00 in Snow Light Snow
6:53 AM 16.0 °F 1.1 °F 10.9 °F 81% 29.45 in 6.0 mi West 15.0 mph - 0.00 in Snow Light Snow
7:46 AM 15.8 °F 3.4 °F 10.4 °F 79% 29.43 in 2.0 mi West 10.4 mph - 0.00 in Snow Light Snow
7:53 AM 15.1 °F 1.1 °F 10.9 °F 84% 29.47 in 1.5 mi West 12.7 mph - 0.00 in Snow Light Snow
8:10 AM 15.8 °F 1.4 °F 10.4 °F 79% 29.44 in 1.2 mi West 13.8 mph - 0.00 in Snow Light Snow
8:31 AM 14.0 °F -0.8 °F 10.4 °F 86% 29.44 in 0.8 mi West 13.8 mph - 0.00 in Snow Light Snow
8:53 AM 14.0 °F -0.2 °F 9.0 °F 80% 29.49 in 0.8 mi West 12.7 mph 21.9 mph 0.00 in Snow Light Snow
9:02 AM 14.0 °F -0.2 °F 8.6 °F 79% 29.45 in 1.0 mi West 12.7 mph 20.7 mph 0.00 in Snow Light Snow
9:14 AM 14.0 °F -1.4 °F 10.4 °F 86% 29.45 in 1.2 mi West 15.0 mph - 0.00 in Snow Light Snow
9:32 AM 14.0 °F -0.2 °F 10.4 °F 86% 29.46 in 1.8 mi West 12.7 mph - 0.00 in Snow Light Snow
9:38 AM 14.0 °F -0.2 °F 10.4 °F 86% 29.46 in 3.0 mi West 12.7 mph - 0.00 in Snow Light Snow
9:53 AM 14.0 °F 0.5 °F 9.0 °F 80% 29.50 in 3.0 mi West 11.5 mph 23.0 mph 0.00 in Snow Light Snow
9:59 AM 14.0 °F 1.2 °F 8.6 °F 79% 29.46 in 1.8 mi WNW 10.4 mph - 0.00 in Snow Light Snow
10:08 AM 14.0 °F 2.9 °F 10.4 °F 86% 29.46 in 1.5 mi WNW 8.1 mph - 0.00 in Snow Light Snow
10:11 AM 14.0 °F -1.4 °F 8.6 °F 79% 29.46 in 2.0 mi WNW 15.0 mph 18.4 mph 0.00 in Snow Light Snow
10:19 AM 14.0 °F -1.4 °F 6.8 °F 73% 29.46 in 7.0 mi WNW 15.0 mph 20.7 mph 0.00 in Snow Light Snow
10:31 AM 14.0 °F -4.7 °F 6.8 °F 73% 29.45 in 9.0 mi West 23.0 mph 29.9 mph 0.00 in   Overcast
10:43 AM 15.8 °F -3.4 °F 6.8 °F 68% 29.45 in 7.0 mi West 26.5 mph 31.1 mph 0.00 in Snow Light Snow
10:53 AM 14.0 °F -2.5 °F 7.0 °F 74% 29.49 in 5.0 mi WNW 17.3 mph 29.9 mph 0.00 in Snow Light Snow
11:53 AM 14.0 °F 0.5 °F 7.0 °F 74% 29.49 in 5.0 mi WNW 11.5 mph 20.7 mph 0.00 in Snow Light Snow
12:53 PM 14.0 °F -1.4 °F 6.8 °F 73% 29.45 in 9.0 mi West 15.0 mph 24.2 mph N/A   Overcast
1:53 PM 14.0 °F -3.9 °F 6.1 °F 71% 29.50 in 10.0 mi WNW 20.7 mph 28.8 mph 0.00 in   Mostly Cloudy
2:53 PM 14.0 °F -0.8 °F 7.0 °F 74% 29.53 in 10.0 mi West 13.8 mph 20.7 mph 0.00 in Snow Light Snow
3:53 PM 14.0 °F -1.4 °F 7.0 °F 74% 29.55 in 9.0 mi West 15.0 mph 21.9 mph 0.00 in   Overcast
4:53 PM 12.0 °F 0.5 °F 6.1 °F 77% 29.57 in 10.0 mi West 8.1 mph - 0.00 in   Mostly Cloudy
5:53 PM 10.9 °F -0.8 °F 7.0 °F 84% 29.58 in 9.0 mi West 8.1 mph - 0.00 in Snow Light Snow
6:05 PM 10.4 °F -3.3 °F 6.8 °F 85% 29.54 in 8.0 mi West 10.4 mph - 0.00 in Snow Light Snow
6:53 PM 10.0 °F -2.9 °F 6.1 °F 84% 29.60 in 7.0 mi West 9.2 mph - 0.00 in Snow Light Snow
7:53 PM 9.0 °F -5.9 °F 5.0 °F 84% 29.61 in 8.0 mi West 11.5 mph - 0.00 in Snow Light Snow
8:53 PM 10.0 °F -3.7 °F 5.0 °F 80% 29.62 in 9.0 mi West 10.4 mph - 0.00 in Snow Light Snow
9:53 PM 10.0 °F -4.5 °F 5.0 °F 80% 29.63 in 8.0 mi West 11.5 mph - 0.00 in Snow Light Snow
10:53 PM 10.0 °F -1.9 °F 5.0 °F 80% 29.64 in 9.0 mi West 8.1 mph - 0.00 in Snow Light Snow
11:53 PM 8.1 °F -3.2 °F 3.9 °F 83% 29.65 in 10.0 mi WSW 6.9 mph - 0.00 in   Overcast